Weather History for Butte, MT

Change the Weather History Date:

Sunday, March 17, 2013

  Actual Average Record
Temperature  
Mean Temperature 30 °F 32 °F  
Max Temperature 37 °F 44 °F 65 °F (2007)
Min Temperature 23 °F 20 °F -18 °F (1943)
Degree Days  
Heating Degree Days 35 33  
Month to date heating degree days 553 610  
Since 1 July heating degree days 6931 7179  
Cooling Degree Days 0 0  
Month to date cooling degree days 0 0  
Year to date cooling degree days 0 0  
Moisture  
Dew Point 19 °F    
Average Humidity 66    
Maximum Humidity 92    
Minimum Humidity 39    
Precipitation  
Precipitation 0.01 in 0.03 in 0.33 in (1968)
Month to date precipitation 0.06 0.37  
Year to date precipitation 0.46 1.27  
Sea Level Pressure  
Sea Level Pressure 29.69 in    
Wind  
Wind Speed 12 mph (WNW)    
Max Wind Speed 26 mph    
Max Gust Speed 35 mph    
Visibility 6 miles    
Events Fog , Snow    
T = Trace of Precipitation, MM = Missing Value Source: NWS Daily Summary

Daily Weather History Graph

Daily Weather History Graph

Search for Another Location

Airport:

Trip Planner

Search our weather history database for the weather conditions in past years. The results will help you decide how hot, cold, wet, or windy it might be!

Date:

Astronomy

Mar. 17, 2013 Rise Set
Actual Time 7:38 AM MDT 7:38 PM MDT
Civil Twilight 7:08 AM MDT 8:08 PM MDT
Nautical Twilight 6:33 AM MDT 8:43 PM MDT
Astronomical Twilight 5:58 AM MDT 9:19 PM MDT
Moon 10:36 AM MDT (3/17) 1:07 AM MDT (3/17)
Length of Visible Light 13h 00m
Length of Day
12h 00m
Waxing Crescent, 32% of the Moon is Illuminated
Mar 17
Waxing Crescent
Mar 19
First Quarter
Mar 27
Full
Apr 2
Last Quarter
Apr 10
New

Hourly Weather History & Observations

Time (MDT) Temp. Windchill Dew Point Humidity Pressure Visibility Wind Dir Wind Speed Gust Speed Precip Events Conditions
12:53 AM 37.0 °F 33.3 °F 23.0 °F 57% 29.58 in 10.0 mi WNW 4.6 mph 16.1 mph N/A   Overcast
1:53 AM 32.0 °F 24.8 °F 28.0 °F 85% 29.56 in 3.0 mi WNW 8.1 mph - 0.00 in Snow Light Snow
1:56 AM 32.0 °F 24.2 °F 28.4 °F 87% 29.57 in 1.8 mi WNW 9.2 mph - 0.00 in Snow Light Snow
2:08 AM 30.2 °F 20.8 °F 28.4 °F 93% 29.57 in 1.0 mi NW 11.5 mph - 0.00 in Snow Light Snow
2:12 AM 30.2 °F 20.8 °F 30.2 °F 100% 29.57 in 0.8 mi NW 11.5 mph - 0.00 in Snow Light Snow
2:18 AM 30.2 °F 19.8 °F 28.4 °F 93% 29.57 in 1.0 mi NNW 13.8 mph - 0.00 in Snow Light Snow
2:32 AM 30.2 °F 21.9 °F 28.4 °F 93% 29.57 in 0.8 mi North 9.2 mph 17.3 mph 0.00 in Snow Light Snow
2:43 AM 30.2 °F 24.3 °F 28.4 °F 93% 29.58 in 2.0 mi North 5.8 mph - 0.00 in Snow Light Snow
2:51 AM 30.2 °F 26.7 °F 28.4 °F 93% 29.58 in 3.0 mi NNW 3.5 mph - 0.00 in Snow Light Snow
2:53 AM 30.9 °F 26.2 °F 28.0 °F 89% 29.58 in 2.5 mi NW 4.6 mph - 0.00 in Snow Light Snow
3:04 AM 30.2 °F 23.4 °F 28.4 °F 93% 29.58 in 1.0 mi WNW 6.9 mph - 0.00 in Snow Light Snow
3:09 AM 30.2 °F 22.6 °F 28.4 °F 93% 29.58 in 0.8 mi WNW 8.1 mph - 0.00 in Snow Light Snow
3:17 AM 30.2 °F 20.8 °F 26.6 °F 86% 29.59 in 2.0 mi WNW 11.5 mph 16.1 mph 0.00 in Snow Light Snow
3:36 AM 28.4 °F 21.2 °F 26.6 °F 93% 29.57 in 1.0 mi NW 6.9 mph - 0.01 in Snow Light Snow
3:45 AM 28.4 °F 22.2 °F 26.6 °F 93% 29.57 in 3.0 mi NW 5.8 mph - 0.01 in Snow Light Snow
3:53 AM 28.9 °F 25.2 °F 27.0 °F 92% 29.56 in 9.0 mi North 3.5 mph - 0.01 in   Overcast
4:53 AM 28.0 °F - 26.1 °F 92% 29.55 in 10.0 mi Calm Calm - N/A   Scattered Clouds
5:29 AM 26.6 °F 14.7 °F 24.8 °F 93% 29.56 in 1.8 mi NW 15.0 mph 21.9 mph 0.00 in Snow Light Snow
5:39 AM 26.6 °F 14.7 °F 23.0 °F 86% 29.56 in 0.5 mi WNW 15.0 mph - 0.00 in Fog , Snow Snow
5:45 AM 28.4 °F 17.0 °F 21.2 °F 74% 29.56 in 2.0 mi WNW 15.0 mph - 0.00 in Snow Light Snow
5:53 AM 28.0 °F 16.5 °F 21.0 °F 75% 29.59 in 9.0 mi NW 15.0 mph 21.9 mph 0.00 in   Overcast
6:01 AM 26.6 °F 12.7 °F 19.4 °F 74% 29.58 in 6.0 mi NW 20.7 mph 27.6 mph N/A   Haze
6:53 AM 25.0 °F 11.3 °F 12.0 °F 58% 29.64 in 10.0 mi NW 18.4 mph 27.6 mph N/A   Overcast
7:53 AM 25.0 °F 11.7 °F 8.1 °F 49% 29.70 in 10.0 mi NW 17.3 mph - N/A   Overcast
8:53 AM 24.1 °F 11.0 °F 8.1 °F 51% 29.73 in 10.0 mi NW 16.1 mph 24.2 mph N/A   Clear
9:53 AM 25.0 °F 11.3 °F 12.0 °F 58% 29.75 in 10.0 mi WNW 18.4 mph 27.6 mph N/A   Mostly Cloudy
10:53 AM 24.1 °F 14.4 °F 16.0 °F 71% 29.78 in 10.0 mi NW 9.2 mph - 0.00 in   Partly Cloudy
11:53 AM 27.0 °F 14.3 °F 10.0 °F 49% 29.76 in 10.0 mi West 17.3 mph 24.2 mph 0.00 in   Overcast
12:53 PM 28.0 °F 16.1 °F 10.0 °F 47% 29.77 in 10.0 mi West 16.1 mph 26.5 mph N/A   Overcast
1:53 PM 28.0 °F 15.3 °F 9.0 °F 45% 29.81 in 10.0 mi WNW 18.4 mph 26.5 mph N/A   Overcast
2:53 PM 28.0 °F 17.5 °F 9.0 °F 45% 29.82 in 10.0 mi West 12.7 mph 17.3 mph N/A   Overcast
3:53 PM 30.9 °F 19.8 °F 9.0 °F 40% 29.82 in 10.0 mi WNW 16.1 mph 32.2 mph N/A   Overcast
4:53 PM 30.9 °F 19.4 °F 8.1 °F 38% 29.85 in 10.0 mi WNW 17.3 mph 27.6 mph N/A   Overcast
5:53 PM 30.9 °F 18.7 °F 8.1 °F 38% 29.88 in 10.0 mi West 19.6 mph 32.2 mph N/A   Mostly Cloudy
6:53 PM 28.9 °F 19.8 °F 10.9 °F 47% 29.93 in 10.0 mi WNW 10.4 mph 18.4 mph N/A   Overcast
7:53 PM 27.0 °F 15.6 °F 7.0 °F 43% 29.95 in 10.0 mi West 13.8 mph - N/A   Mostly Cloudy
8:53 PM 26.1 °F 19.4 °F 7.0 °F 44% 29.99 in 10.0 mi SW 5.8 mph - N/A   Scattered Clouds
9:53 PM 24.1 °F 17.0 °F 8.1 °F 51% 29.99 in 10.0 mi SW 5.8 mph - N/A   Partly Cloudy
10:53 PM 23.0 °F 14.7 °F 9.0 °F 55% 30.01 in 10.0 mi West 6.9 mph - N/A   Clear
11:53 PM 23.0 °F 12.4 °F 9.0 °F 55% 30.01 in 10.0 mi West 10.4 mph 21.9 mph N/A   Partly Cloudy